Wind_Speed
26 26 25 25 25 25 25 25 25 24 24 25 25 25 25 25 25 26 26 26 27 27 27 28 28 29 30 30 31 31 32 32 32 32 32 33 33 33 33 33 33 34 33
27 27 27 26 26 26 26 26 26 26 27 27 27 26 26 27 27 28 28 28 28 29 29 29 30 30 31 31 31 31 32 32 33 33 33 34 34 35 35 35 35 35 35
28 28 28 28 28 27 27 28 28 28 28 28 28 28 28 29 29 29 29 29 29 30 30 31 31 31 31 31 31 31 31 32 33 34 34 35 35 36 36 36 36 36 36
29 29 29 30 30 29 29 29 29 30 30 30 29 29 30 30 30 30 30 30 30 31 31 31 31 32 31 31 32 32 32 33 34 34 35 36 36 36 36 36 36 36 36
30 30 30 30 31 31 31 31 31 31 31 31 31 31 31 31 31 31 31 32 32 32 32 32 32 32 32 33 33 33 33 34 34 35 36 37 37 38 37 38 38 37 37
30 30 30 30 31 32 33 33 33 32 33 32 32 32 32 32 32 32 33 33 33 33 33 33 33 34 34 34 35 35 36 36 36 37 37 38 38 38 39 39 39 39 38
30 31 32 32 33 34 33 33 34 34 34 34 34 34 34 34 34 34 34 34 34 34 34 35 35 36 36 36 37 37 38 38 39 39 39 39 39 39 40 40 41 41 40
32 32 33 34 34 34 34 34 34 35 35 35 36 36 36 36 36 36 36 36 36 36 36 36 37 37 37 38 39 39 40 40 41 41 42 41 41 42 42 42 42 42 42
35 35 34 35 36 36 35 35 36 36 36 36 37 37 37 37 37 37 37 37 38 38 38 39 39 40 40 40 41 41 41 42 43 43 43 43 44 44 44 43 43 43 43
37 37 36 36 35 35 35 36 37 37 37 37 37 37 38 38 38 38 38 39 40 40 40 41 41 42 42 42 43 43 44 44 45 45 45 45 44 44 44 44 44 44 44
38 38 38 37 37 36 36 37 37 38 38 38 38 38 39 39 40 41 41 41 42 42 43 43 43 44 44 45 45 45 45 46 46 46 46 46 46 45 45 45 45 45 45
38 39 40 40 39 39 38 38 39 39 39 40 41 41 42 42 43 44 44 45 45 45 45 46 46 46 47 47 47 47 47 48 48 48 48 47 47 46 46 46 46 46 47
39 40 41 42 42 42 42 41 41 41 41 42 43 43 44 45 46 46 47 47 47 47 48 48 48 49 49 49 49 49 50 50 50 50 49 48 48 47 47 47 47 48 48
40 41 42 43 43 43 44 44 43 43 43 43 44 45 46 47 48 48 48 49 49 49 50 50 50 50 50 51 51 51 51 52 51 51 50 49 49 49 48 48 48 49 49
41 42 43 44 44 45 45 45 45 45 45 45 46 47 48 49 49 50 50 51 51 51 52 52 52 52 52 52 52 53 53 52 52 51 50 50 50 50 50 50 50 50 50
42 42 43 44 45 46 46 46 47 47 47 47 47 48 49 50 50 51 51 51 52 52 52 52 53 53 53 53 53 53 53 53 52 51 51 50 50 50 51 51 51 51 51
42 43 43 44 45 46 47 47 48 48 49 50 50 49 49 49 50 50 51 52 52 52 53 53 53 53 54 54 54 53 53 53 52 51 51 50 51 51 51 51 51 52 52
42 43 44 44 46 47 47 48 49 50 50 51 51 51 51 50 50 51 51 51 51 52 52 53 53 54 55 54 54 53 52 52 51 52 51 50 51 51 51 52 52 52 52
42 43 44 45 45 46 47 48 49 50 50 51 51 52 51 51 51 51 51 52 52 53 53 53 54 54 55 54 53 52 52 51 51 51 51 51 51 51 52 52 53 52 52
43 44 44 44 44 45 46 46 47 48 49 50 51 51 52 52 51 52 52 53 53 53 54 53 54 53 53 52 52 51 51 51 51 51 52 52 52 52 52 52 52 51 51
42 43 43 44 45 45 46 46 47 47 48 49 50 50 51 51 52 52 52 52 53 53 53 53 53 52 52 51 51 50 50 50 51 50 51 51 51 51 51 51 51 51 51
43 44 44 44 45 46 46 47 46 46 47 48 48 49 49 50 51 51 51 52 52 52 52 52 52 52 51 51 50 50 50 49 49 50 50 50 51 50 50 50 50 51 51
44 45 45 45 45 45 46 46 46 46 46 47 47 48 48 49 49 50 50 50 50 51 51 51 51 51 51 50 50 49 49 49 49 49 49 49 49 49 49 49 50 50 51
44 44 44 45 45 46 46 47 47 47 47 47 48 48 48 48 49 49 49 49 50 50 50 50 50 50 50 49 49 48 48 48 48 49 48 48 48 48 49 49 49 49 50
44 44 44 44 45 45 46 47 47 47 47 48 47 48 48 49 49 49 48 49 49 49 49 49 49 48 48 48 48 48 47 47 47 48 47 47 47 48 48 49 49 49 48
44 45 44 44 45 46 46 47 47 47 48 48 48 49 49 50 49 49 48 48 48 48 48 47 47 47 47 46 46 46 46 46 46 46 47 46 47 47 46 46 47 47 47
Wind_Direction
255 258 261 264 267 270 272 274 275 275 276 277 279 279 280 280 281 282 283 284 284 285 285 286 286 286 287 286 286 284 282 281 281 281 281 282 283 283 282 282 282 282 281
256 259 261 264 267 269 271 273 274 274 276 276 277 278 278 279 280 281 283 284 284 285 286 286 286 287 287 287 286 286 284 282 281 281 281 282 282 284 283 282 281 281 281
257 259 262 264 267 269 271 273 274 275 276 277 277 277 278 279 280 281 282 284 285 286 286 287 287 287 287 286 286 285 285 283 281 280 280 281 282 283 283 281 281 281 280
258 261 263 265 267 269 272 273 274 275 276 277 278 279 279 279 280 281 282 283 284 285 286 286 285 286 286 286 286 285 285 285 284 282 281 282 282 283 282 280 280 280 279
259 260 263 267 270 271 271 273 274 275 277 278 278 279 279 280 280 281 282 282 283 284 284 285 284 285 285 284 285 284 284 284 284 283 282 282 282 283 283 280 279 279 278
259 261 264 268 270 272 272 273 274 275 277 277 278 279 279 279 280 280 281 282 282 282 283 283 283 284 284 284 283 283 283 284 283 283 283 282 282 282 282 280 279 279 278
263 263 265 269 272 273 273 274 273 275 276 276 277 278 278 278 279 280 281 281 282 282 282 282 282 283 283 283 283 283 283 283 283 283 283 283 282 281 281 280 279 279 278
266 268 269 271 272 273 273 273 274 274 275 276 278 278 278 279 279 280 280 281 281 282 283 283 283 283 283 282 282 283 283 283 283 283 282 282 282 282 282 281 280 279 277
268 269 272 273 274 273 272 273 274 276 277 277 278 279 279 278 279 280 280 281 281 282 282 283 282 283 283 283 283 283 283 283 283 283 283 283 282 282 282 281 280 279 277
270 271 272 274 274 273 273 274 275 275 277 277 278 278 279 279 279 279 280 281 281 282 283 283 283 282 283 283 283 283 283 283 283 283 283 282 282 281 281 280 280 279 278
270 272 273 274 274 274 274 275 275 275 275 276 277 277 279 279 279 279 280 280 281 281 281 282 282 282 283 283 283 283 283 283 283 283 282 281 281 280 280 279 278 278 277
271 272 273 274 275 275 276 276 275 274 275 276 277 277 278 279 280 280 280 280 280 281 281 281 282 283 283 283 283 283 282 282 283 283 282 281 280 279 279 278 278 278 277
273 274 274 275 275 276 277 276 277 276 277 277 278 278 279 279 279 279 280 280 280 281 281 281 282 282 283 283 283 283 283 283 283 283 282 281 280 279 279 278 278 277 277
275 276 275 275 276 276 277 277 277 277 277 277 278 278 279 280 279 280 280 280 280 281 282 282 282 282 282 283 283 283 284 284 283 282 281 280 279 279 279 279 278 278 277
275 276 276 276 276 276 276 276 276 277 277 278 278 279 280 280 280 280 281 281 281 281 281 282 281 282 282 283 283 283 284 283 282 281 280 279 279 279 279 279 279 278 278
275 276 277 276 276 276 277 277 277 277 278 279 280 280 281 281 281 281 281 282 282 283 282 282 281 282 282 283 283 284 284 283 281 280 280 279 279 278 279 279 279 278 278
276 277 278 278 277 277 277 277 277 278 280 281 281 281 282 281 281 282 282 283 283 283 282 283 283 282 282 283 283 284 283 282 281 281 280 280 279 279 279 279 279 279 279
278 278 278 279 279 279 279 279 279 279 280 281 282 282 283 283 283 283 283 283 283 284 284 284 284 284 284 284 283 283 282 281 280 280 280 280 280 279 279 280 280 280 279
279 279 279 280 281 281 281 281 282 282 282 283 283 284 284 284 283 284 283 283 284 284 284 284 285 285 284 283 283 282 282 281 281 281 281 281 281 280 280 280 280 280 279
280 280 280 281 282 282 283 283 283 284 284 284 284 285 285 284 284 284 284 284 284 284 284 285 285 285 284 284 283 283 282 282 282 281 282 282 282 281 281 281 280 280 280
281 281 282 282 282 283 283 284 284 285 285 285 285 285 285 285 285 285 285 285 285 285 285 285 285 284 284 284 283 283 282 282 283 283 282 282 282 283 283 282 281 280 280
282 282 283 283 283 283 284 284 284 285 285 286 286 286 286 286 286 286 286 286 286 286 286 286 285 285 284 284 283 283 282 282 283 282 283 283 284 284 284 283 282 281 280
282 283 284 284 284 284 284 284 284 285 286 286 287 287 287 287 287 287 287 287 286 286 287 286 285 285 284 284 284 283 283 283 283 284 284 284 284 284 284 283 283 282 281
284 284 284 283 283 284 284 285 284 285 285 286 287 287 287 287 287 288 287 287 286 286 286 285 285 284 283 283 284 284 283 283 284 284 284 284 284 284 284 284 284 283 283
284 284 284 284 284 285 285 286 285 285 286 286 286 286 287 287 287 288 287 287 287 286 286 285 284 284 283 283 283 283 283 284 285 285 285 285 285 285 285 285 284 284 284
284 285 285 285 285 286 286 287 287 286 287 286 286 286 287 287 286 286 286 286 286 286 285 285 284 283 283 283 284 284 284 284 285 285 285 286 286 286 285 285 285 285 284
Height
5828 5829 5829 5829 5829 5829 5828 5828 5827 5826 5825 5825 5823 5822 5821 5820 5819 5817 5816 5815 5814 5812 5811 5809 5808 5806 5805 5803 5802 5801 5799 5798 5797 5796 5796 5794 5793 5792 5791 5790 5790 5789 5788
5823 5824 5824 5824 5824 5823 5823 5822 5821 5821 5820 5819 5818 5816 5815 5814 5813 5812 5810 5809 5808 5806 5805 5803 5802 5800 5798 5797 5795 5794 5792 5791 5790 5789 5788 5787 5786 5785 5784 5783 5782 5781 5780
5817 5818 5818 5818 5818 5817 5817 5816 5816 5815 5814 5813 5812 5810 5809 5808 5807 5805 5804 5803 5801 5800 5798 5796 5795 5793 5792 5790 5788 5787 5785 5784 5783 5781 5780 5779 5778 5777 5776 5775 5774 5773 5772
5811 5812 5812 5812 5812 5811 5811 5810 5810 5809 5807 5806 5805 5804 5803 5802 5800 5799 5797 5796 5794 5793 5791 5789 5788 5786 5785 5783 5781 5780 5778 5777 5775 5774 5772 5771 5770 5769 5767 5766 5765 5764 5763
5805 5805 5806 5806 5805 5805 5804 5804 5803 5802 5801 5800 5798 5797 5796 5795 5793 5792 5790 5789 5787 5785 5784 5782 5781 5779 5777 5776 5774 5773 5771 5769 5768 5766 5764 5763 5761 5760 5759 5757 5756 5755 5754
5798 5799 5799 5799 5799 5798 5797 5797 5796 5795 5794 5792 5791 5790 5789 5787 5786 5785 5783 5782 5780 5778 5777 5775 5773 5772 5770 5768 5767 5765 5763 5762 5760 5758 5756 5754 5753 5751 5750 5748 5747 5746 5745
5791 5791 5792 5791 5791 5791 5790 5789 5788 5787 5786 5785 5784 5783 5781 5780 5778 5777 5775 5774 5772 5770 5769 5767 5765 5764 5762 5760 5759 5757 5755 5753 5751 5749 5748 5746 5744 5742 5741 5739 5738 5736 5736
5784 5784 5784 5784 5784 5783 5782 5781 5780 5779 5778 5777 5776 5774 5773 5773 5770 5769 5767 5766 5764 5762 5761 5759 5757 5755 5754 5752 5750 5748 5746 5744 5742 5740 5738 5736 5734 5733 5731 5729 5728 5726 5725
5777 5777 5776 5776 5775 5775 5774 5773 5772 5771 5770 5769 5767 5766 5765 5764 5762 5761 5759 5757 5755 5754 5752 5750 5748 5746 5744 5743 5741 5739 5737 5735 5732 5730 5728 5726 5724 5722 5720 5719 5717 5716 5715
5769 5769 5769 5768 5767 5767 5766 5765 5764 5763 5762 5761 5759 5757 5756 5754 5753 5752 5751 5748 5746 5744 5742 5741 5738 5737 5735 5733 5731 5729 5726 5724 5722 5720 5717 5715 5713 5711 5710 5708 5706 5705 5704
5761 5761 5760 5760 5759 5758 5757 5757 5756 5754 5753 5752 5750 5749 5747 5745 5743 5742 5741 5739 5737 5735 5732 5730 5728 5726 5724 5722 5720 5718 5715 5713 5711 5708 5706 5704 5702 5700 5698 5696 5695 5693 5692
5753 5752 5752 5751 5750 5750 5749 5748 5747 5745 5744 5742 5741 5739 5737 5736 5734 5732 5730 5728 5726 5724 5722 5719 5717 5715 5713 5710 5708 5706 5704 5701 5699 5696 5694 5692 5690 5688 5686 5684 5682 5681 5679
5744 5744 5743 5742 5741 5740 5739 5738 5737 5735 5734 5732 5731 5729 5727 5725 5723 5721 5719 5717 5715 5713 5710 5708 5705 5703 5700 5698 5696 5693 5691 5689 5686 5684 5681 5679 5677 5675 5673 5671 5669 5668 5666
5735 5734 5733 5732 5731 5730 5729 5728 5726 5725 5723 5722 5720 5718 5716 5714 5712 5710 5707 5705 5703 5701 5698 5696 5693 5690 5688 5686 5683 5680 5678 5676 5673 5671 5668 5666 5664 5662 5660 5658 5656 5654 5653
5725 5724 5723 5722 5721 5720 5718 5717 5716 5714 5713 5711 5709 5707 5705 5702 5700 5698 5695 5693 5691 5689 5687 5684 5681 5678 5675 5672 5670 5667 5665 5662 5659 5657 5655 5653 5651 5649 5647 5644 5642 5640 5639
5715 5714 5712 5711 5710 5709 5708 5706 5704 5703 5701 5699 5697 5695 5693 5690 5688 5685 5683 5680 5677 5675 5673 5670 5667 5664 5662 5659 5656 5653 5650 5648 5645 5643 5640 5638 5636 5634 5632 5630 5628 5626 5624
5705 5703 5702 5700 5699 5698 5696 5694 5693 5691 5689 5687 5685 5683 5680 5677 5675 5672 5670 5667 5664 5661 5659 5656 5653 5650 5647 5645 5642 5639 5636 5633 5631 5628 5626 5624 5622 5620 5618 5615 5613 5611 5609
5694 5692 5691 5689 5688 5686 5684 5682 5680 5678 5676 5674 5672 5670 5667 5664 5662 5659 5656 5653 5650 5648 5645 5642 5639 5636 5633 5630 5627 5624 5621 5618 5616 5614 5612 5610 5607 5605 5603 5601 5598 5596 5594
5683 5682 5680 5678 5676 5674 5672 5670 5668 5666 5663 5661 5659 5656 5653 5651 5648 5645 5642 5639 5636 5633 5630 5628 5625 5621 5618 5615 5612 5609 5607 5604 5602 5600 5597 5595 5593 5590 5588 5585 5583 5581 5579
5672 5670 5668 5666 5664 5662 5660 5657 5655 5653 5650 5648 5645 5643 5640 5637 5634 5631 5628 5625 5622 5619 5616 5613 5610 5607 5604 5600 5598 5595 5592 5590 5587 5585 5582 5580 5577 5575 5573 5570 5568 5566 5564
5661 5659 5657 5654 5652 5650 5647 5645 5642 5640 5637 5634 5632 5629 5626 5623 5620 5617 5614 5611 5607 5604 5601 5599 5596 5593 5590 5586 5584 5581 5578 5575 5573 5570 5567 5565 5562 5560 5557 5555 5552 5550 5548
5649 5647 5644 5642 5640 5637 5635 5632 5630 5627 5624 5621 5618 5615 5612 5609 5606 5603 5600 5597 5594 5590 5587 5584 5582 5578 5575 5573 5570 5567 5564 5562 5559 5557 5553 5550 5547 5545 5542 5540 5537 5535 5533
5637 5635 5632 5630 5627 5624 5622 5619 5616 5614 5611 5608 5605 5602 5599 5596 5592 5589 5586 5583 5580 5577 5574 5571 5568 5565 5562 5559 5556 5553 5550 5547 5545 5542 5539 5536 5533 5530 5528 5525 5522 5519 5517
5625 5622 5620 5617 5615 5612 5609 5606 5603 5601 5598 5595 5592 5588 5586 5582 5579 5576 5573 5569 5566 5563 5560 5557 5554 5551 5548 5545 5543 5540 5537 5534 5531 5528 5525 5523 5519 5517 5513 5510 5507 5504 5501
5612 5610 5607 5605 5602 5599 5596 5593 5590 5587 5585 5581 5578 5575 5572 5569 5566 5562 5559 5556 5552 5549 5546 5543 5540 5537 5534 5532 5529 5527 5524 5521 5518 5515 5511 5509 5506 5503 5500 5496 5492 5489 5486
5600 5597 5595 5592 5589 5586 5583 5580 5577 5574 5571 5568 5565 5562 5558 5555 5551 5548 5545 5542 5539 5536 5533 5530 5527 5524 5521 5519 5516 5513 5511 5508 5505 5502 5498 5495 5492 5489 5487 5482 5478 5475 5472